sat.trackr.live / text

‹ back to catalog

STARLINK-32774

NORAD 62737 · 2025-014C

PAYLOAD ACTIVE UNKNOWN

§ Identity

Operator
Country
US
Launch date
2025-01-21
Launch site
AFETR
Launch vehicle
Mass (kg)
RCS (m²)

Purposes: comms

External: N2YO · Heavens-Above · Gunter

§ Orbital elements

Epoch: 2026-05-24T22:53:04.267968Z

Period
94.27 min
Inclination
43.0023°
Eccentricity
0.0001414
Mean motion
15.27566521 rev/d
Perigee alt
482.1 km
Apogee alt
484.1 km
Semi-major
6,861.2 km
B*
3.9436e-4
RAAN
86.9227°
Arg perigee
276.9063°
Mean anomaly
83.1627°
Rev number
7,488

§ Raw data

STARLINK-327741 62737U 25014C   26144.95352162  .00010601  00000+0  39436-3 0  99922 62737  43.0023  86.9227 0001414 276.9063  83.1627 15.27566521 74880

JSON: /api/v1/satellites/62737 · /tle

For live sub-satellite position, see the globe view (requires WebGL).

§ Visibility from observer

Set your observer location to see the next 7 days of passes ≥ 10°. The values pass through the URL so the page stays shareable.

No JS? Fill the form by hand. The geolocation button needs JavaScript.